Location: Izdebno
(52.6670°N, 16.2170°E)
Time: 03:49:48
(UTC+02:00)

Transit 4A - Pass Details

Date: 25 February 2024
Orbit: 871 x 972 km, 66.8° (Epoch: 22 April)

Event Time Altitude Azimuth Distance (km) Brightness Sun altitude
Rises 04:56:30 0° 283° (WNW) 3,567 - -18.2°
Reaches altitude 10° 04:59:40 10° 298° (WNW) 2,607 - -17.8°
Exits shadow 05:01:07 15° 309° (NW) 2,247 9.5 -17.5°
Maximum altitude 05:04:17 22° 348° (NNW) 1,856 9.4 -17.1°
Drops below altitude 10° 05:08:51 10° 39° (NE) 2,561 10.8 -16.4°
Sets 05:11:56 0° 54° (NE) 3,489 12.0 -15.9°
